Date String (YYYY-MM-DD hh:mm:ss) UTC,Instrument flags,Ambient pressure (hPa),Sample flow (lpm),Bypass flow (lpm),Sample temperature (°C),Ambient temperature (°C),ASC tube jacket temperature (°C),LED temperature (°C),Box temperature (°C),Sample RH (%),Span deviation,Mass concentration (μg/m³),Mass concentration (μg/m³),Mass concentration (μg/m³)
DateTimeUTC,F1_M11,P_M11,Q1_M11,Q2_M11,T1_M11,T2_M11,T3_M11,T4_M11,T5_M11,U1_M11,ZSPAN_M11,X0_M11,X2_M11,X1_M11
2022-03-04 19:00:00,,0817.6,5.01,0.00,26.6,25.8,00.0,35.5,28.3,08.5,0000.0,0009.06,0003.39,0002.52
2022-03-04 19:01:00,,0817.5,4.99,0.00,26.6,25.8,00.0,35.5,28.3,08.5,0000.0,0009.02,0003.42,0002.52
2022-03-04 19:02:00,,0817.5,5.00,0.00,26.6,25.7,00.0,35.5,28.3,08.5,0000.0,0008.88,0003.43,0002.52
2022-03-04 19:03:00,,0817.5,4.99,0.00,26.6,25.7,00.0,35.5,28.2,08.6,0000.0,0009.10,0003.40,0002.52
2022-03-04 19:04:00,,0817.5,5.00,0.00,26.6,25.7,00.0,35.5,28.3,08.5,0000.0,0008.94,0003.38,0002.54
2022-03-04 19:05:00,,0817.5,5.01,0.00,26.6,25.7,00.0,35.5,28.2,08.4,0000.0,0008.68,0003.38,0002.56
2022-03-04 19:06:00,,0817.4,5.00,0.00,26.6,25.7,00.0,35.5,28.3,08.4,0000.0,0009.23,0003.36,0002.57
2022-03-04 19:07:00,,0817.4,4.99,0.00,26.6,25.7,00.0,35.5,28.3,08.5,0000.0,0009.33,0003.39,0002.57
2022-03-04 19:08:00,,0817.4,5.00,0.00,26.6,25.7,00.0,35.6,28.3,08.6,0000.0,0009.44,0003.38,0002.58
2022-03-04 19:09:00,,0817.4,4.99,0.00,26.6,25.7,00.0,35.5,28.3,08.6,0000.0,0009.55,0003.40,0002.58
2022-03-04 19:10:00,,0817.4,5.01,0.00,26.6,25.7,00.0,35.5,28.3,08.5,0000.0,0008.87,0003.39,0002.57
2022-03-04 19:11:00,,0817.3,5.02,0.00,26.6,25.7,00.0,35.6,28.3,08.6,0000.0,0009.03,0003.35,0002.57
2022-03-04 19:12:00,,0817.4,4.99,0.00,26.6,25.7,00.0,35.6,28.3,08.5,0000.0,0008.87,0003.29,0002.57
2022-03-04 19:13:00,,0817.4,4.99,0.00,26.6,25.7,00.0,35.6,28.3,08.6,0000.0,0009.32,0003.29,0002.58
2022-03-04 19:14:00,,0817.4,4.99,0.00,26.6,25.7,00.0,35.6,28.3,08.5,0000.0,0009.05,0003.28,0002.59
2022-03-04 19:15:00,,0817.3,5.02,0.00,26.6,25.7,00.0,35.6,28.3,08.8,0000.0,0008.84,0003.29,0002.58
2022-03-04 19:16:00,,0817.3,4.99,0.00,26.6,25.7,00.0,35.6,28.3,08.9,0000.0,0008.76,0003.29,0002.56
2022-03-04 19:17:00,,0817.2,4.99,0.00,26.6,25.7,00.0,35.6,28.3,08.8,0000.0,0008.12,0003.28,0002.54
2022-03-04 19:18:00,,0817.1,5.00,0.00,26.6,25.7,00.0,35.6,28.3,08.7,0000.0,0008.20,0003.23,0002.52
2022-03-04 19:19:00,,0817.1,5.02,0.00,26.6,25.7,00.0,35.6,28.3,08.7,0000.0,0008.06,0003.21,0002.52
2022-03-04 19:20:00,,0817.1,5.00,0.00,26.6,25.7,00.0,35.6,28.3,08.8,0000.0,0007.97,0003.20,0002.51
2022-03-04 19:21:00,,0817.0,4.99,0.00,26.6,25.7,00.0,35.6,28.3,08.7,0000.0,0008.12,0003.22,0002.51
2022-03-04 19:22:00,,0817.1,5.01,0.00,26.6,25.7,00.0,35.6,28.3,08.6,0000.0,0007.81,0003.25,0002.49
2022-03-04 19:23:00,,0817.0,4.99,0.00,26.6,25.7,00.0,35.6,28.3,08.6,0000.0,0007.81,0003.25,0002.47
2022-03-04 19:24:00,,0817.0,4.99,0.00,26.6,25.7,00.0,35.6,28.3,08.6,0000.0,0007.36,0003.27,0002.45
2022-03-04 19:25:00,,0817.0,4.99,0.00,26.6,25.7,00.0,35.6,28.3,08.6,0000.0,0007.14,0003.25,0002.43
2022-03-04 19:26:00,,0817.0,5.01,0.00,26.6,25.7,00.0,35.6,28.3,08.7,0000.0,0007.05,0003.23,0002.41
2022-03-04 19:27:00,,0817.0,4.99,0.00,26.6,25.7,00.0,35.6,28.3,08.6,0000.0,0007.10,0003.22,0002.41
2022-03-04 19:28:00,,0817.0,4.99,0.00,26.6,25.7,00.0,35.6,28.3,08.8,0000.0,0006.78,0003.21,0002.40
2022-03-04 19:29:00,,0816.9,4.99,0.00,26.6,25.7,00.0,35.6,28.3,08.8,0000.0,0006.52,0003.22,0002.40
2022-03-04 19:30:00,,0817.0,5.01,0.00,26.6,25.8,00.0,35.6,28.3,08.8,0000.0,0006.50,0003.21,0002.39
2022-03-04 19:31:00,,0816.9,4.99,0.00,26.6,25.8,00.0,35.6,28.3,08.8,0000.0,0006.33,0003.18,0002.37
2022-03-04 19:32:00,,0817.3,5.00,0.00,26.6,25.7,00.0,35.6,28.3,08.7,0000.0,0006.32,0003.18,0002.37
2022-03-04 19:33:00,,0817.1,5.01,0.00,26.6,25.7,00.0,35.6,28.4,08.7,0000.0,0006.02,0003.18,0002.36
2022-03-04 19:34:00,,0816.9,5.00,0.00,26.6,25.7,00.0,35.6,28.4,08.6,0000.0,0005.92,0003.17,0002.36
2022-03-04 19:35:00,,0816.8,4.99,0.00,26.6,25.8,00.0,35.6,28.4,08.8,0000.0,0005.62,0003.12,0002.35
2022-03-04 19:36:00,,0816.7,5.01,0.00,26.6,25.8,00.0,35.6,28.4,08.7,0000.0,0006.18,0003.13,0002.36
2022-03-04 19:37:00,,0816.7,5.00,0.00,26.6,25.8,00.0,35.6,28.4,08.6,0000.0,0006.68,0003.14,0002.37
2022-03-04 19:38:00,,0816.6,5.00,0.00,26.7,25.8,00.0,35.6,28.4,08.4,0000.0,0007.31,0003.12,0002.37
2022-03-04 19:39:00,,0816.5,4.99,0.00,26.7,25.8,00.0,35.6,28.4,08.5,0000.0,0007.46,0003.17,0002.38
2022-03-04 19:40:00,,0816.5,5.01,0.00,26.7,25.8,00.0,35.6,28.4,08.6,0000.0,0007.50,0003.19,0002.39
2022-03-04 19:41:00,,0816.6,4.99,0.00,26.7,25.8,00.0,35.6,28.4,08.4,0000.0,0007.61,0003.23,0002.40
2022-03-04 19:42:00,,0816.5,4.99,0.00,26.7,25.8,00.0,35.6,28.5,08.4,0000.0,0007.82,0003.27,0002.42
2022-03-04 19:43:00,,0816.4,5.02,0.00,26.7,25.8,00.0,35.6,28.4,08.5,0000.0,0007.84,0003.27,0002.44
2022-03-04 19:44:00,,0816.6,4.99,0.00,26.7,25.8,00.0,35.6,28.5,08.5,0000.0,0008.40,0003.27,0002.44
2022-03-04 19:45:00,,0816.4,4.99,0.00,26.7,25.8,00.0,35.7,28.5,08.6,0000.0,0008.55,0003.29,0002.45
2022-03-04 19:46:00,,0816.3,5.00,0.00,26.7,25.9,00.0,35.7,28.5,08.7,0000.0,0008.61,0003.31,0002.47
2022-03-04 19:47:00,,0816.4,5.02,0.00,26.8,25.8,00.0,35.7,28.5,08.7,0000.0,0008.43,0003.33,0002.47
2022-03-04 19:48:00,,0816.3,5.00,0.00,26.8,25.9,00.0,35.7,28.6,08.6,0000.0,0008.74,0003.32,0002.45
2022-03-04 19:49:00,,0816.2,4.99,0.00,26.8,25.9,00.0,35.7,28.6,08.6,0000.0,0008.60,0003.35,0002.45
2022-03-04 19:50:00,,0816.2,5.00,0.00,26.8,25.9,00.0,35.7,28.6,08.8,0000.0,0008.55,0003.34,0002.44
2022-03-04 19:51:00,,0816.2,5.02,0.00,26.8,26.0,00.0,35.7,28.6,08.7,0000.0,0008.53,0003.33,0002.44
2022-03-04 19:52:00,,0816.1,5.00,0.00,26.8,26.0,00.0,35.7,28.6,08.4,0000.0,0008.45,0003.31,0002.45
2022-03-04 19:53:00,,0816.1,4.99,0.00,26.8,26.0,00.0,35.7,28.6,08.3,0000.0,0008.38,0003.28,0002.45
2022-03-04 19:54:00,,0816.2,5.00,0.00,26.8,26.0,00.0,35.8,28.6,08.3,0000.0,0008.33,0003.28,0002.44
2022-03-04 19:55:00,,0816.1,5.01,0.00,26.8,26.0,00.0,35.8,28.6,08.4,0000.0,0007.49,0003.26,0002.45
2022-03-04 19:56:00,,0816.1,5.02,0.00,26.8,26.1,00.0,35.8,28.6,08.2,0000.0,0007.13,0003.22,0002.45
2022-03-04 19:57:00,,0816.2,4.99,0.00,26.8,26.1,00.0,35.8,28.6,08.3,0000.0,0007.31,0003.22,0002.44
2022-03-04 19:58:00,,0816.2,5.00,0.00,26.8,26.1,00.0,35.8,28.6,08.6,0000.0,0007.78,0003.19,0002.43
2022-03-04 19:59:00,,0816.1,5.01,0.00,26.9,26.1,00.0,35.8,28.7,08.5,0000.0,0007.20,0003.20,0002.45
